When you browse on this site, cookies collect data to enhance your experience and personalize the content and advertising you see.
Visit our Privacy Policy to learn more. By continuing to use the site, you agree to this use of cookies and data.
  • In Belgium
  • List of Countries
  • For 7 days
  • Water Temperature
  • Satellite Maps
  • Weather Map
  • Weather Widgets
  • user-avatar
    Login

    Hourly Weather Vorotynsk

    Today, 24 April, Wednesday

    Time Temperature Precipitation Wind Pressure Humidity
    00:00 +13°C° 0 mm 3 mps 756 mmHg 55%
    01:00 +12°C° 0 mm 3 mps 756 mmHg 57%
    02:00 +12°C° 0 mm 3 mps 756 mmHg 60%
    03:00 +12°C° 0 mm 2 mps 756 mmHg 60%
    04:00 +12°C° 0 mm 2 mps 756 mmHg 62%
    05:00 +10°C° 0 mm 2 mps 756 mmHg 64%
    06:00 +10°C° 0 mm 2 mps 756 mmHg 65%
    07:00 +13°C° 0 mm 2 mps 757 mmHg 61%
    08:00 +13°C° 0 mm 3 mps 757 mmHg 56%
    09:00 +16°C° 0 mm 3 mps 757 mmHg 50%
    10:00 +17°C° 0 mm 3 mps 757 mmHg 46%
    11:00 +19°C° 0 mm 3 mps 757 mmHg 42%
    12:00 +20°C° 0 mm 4 mps 757 mmHg 37%
    13:00 +21°C° 0 mm 4 mps 757 mmHg 36%
    14:00 +21°C° 0 mm 3 mps 756 mmHg 35%
    15:00 +22°C° 0 mm 3 mps 756 mmHg 32%
    16:00 +22°C° 0 mm 3 mps 756 mmHg 35%
    17:00 +23°C° 0 mm 2 mps 756 mmHg 37%
    18:00 +23°C° 0 mm 2 mps 755 mmHg 39%
    19:00 +20°C° 0 mm 2 mps 755 mmHg 43%
    20:00 +18°C° 0 mm 2 mps 755 mmHg 47%
    21:00 +17°C° 0 mm 2 mps 755 mmHg 51%
    22:00 +16°C° 0 mm 2 mps 756 mmHg 53%
    23:00 +16°C° 0 mm 2 mps 756 mmHg 54%

    Tomorrow, 25 April, Thursday

    Time Temperature Precipitation Wind Pressure Humidity
    00:00 +15°C° 0 mm 2 mps 756 mmHg 56%
    01:00 +14°C° 0 mm 2 mps 756 mmHg 57%
    02:00 +14°C° 0 mm 2 mps 756 mmHg 59%
    03:00 +14°C° 0 mm 2 mps 756 mmHg 60%
    04:00 +13°C° 0 mm 2 mps 756 mmHg 61%
    05:00 +13°C° 0 mm 2 mps 756 mmHg 62%
    06:00 +13°C° 0 mm 2 mps 756 mmHg 63%
    07:00 +15°C° 0 mm 2 mps 756 mmHg 58%
    08:00 +16°C° 0 mm 2 mps 756 mmHg 53%
    09:00 +18°C° 0 mm 2 mps 756 mmHg 48%
    10:00 +20°C° 0 mm 2 mps 756 mmHg 43%
    11:00 +21°C° 0 mm 2 mps 756 mmHg 39%
    12:00 +24°C° 0 mm 2 mps 756 mmHg 35%
    13:00 +24°C° 0 mm 2 mps 755 mmHg 34%
    14:00 +24°C° 0 mm 2 mps 755 mmHg 33%
    15:00 +25°C° 0 mm 2 mps 755 mmHg 31%
    16:00 +25°C° 0 mm 2 mps 754 mmHg 33%
    17:00 +24°C° 0 mm 2 mps 754 mmHg 35%
    18:00 +24°C° 0 mm 2 mps 754 mmHg 38%
    19:00 +23°C° 0 mm 2 mps 754 mmHg 41%
    20:00 +20°C° 0 mm 2 mps 754 mmHg 45%
    21:00 +18°C° 0 mm 2 mps 754 mmHg 49%
    22:00 +18°C° 0 mm 2 mps 754 mmHg 51%
    23:00 +17°C° 0 mm 2 mps 753 mmHg 53%

    Day after tomorrow, 26 April, Friday

    Time Temperature Precipitation Wind Pressure Humidity
    00:00 +16°C° 0 mm 2 mps 753 mmHg 55%
    01:00 +16°C° 0 mm 2 mps 753 mmHg 57%
    02:00 +15°C° 0 mm 2 mps 753 mmHg 58%
    03:00 +15°C° 0 mm 2 mps 753 mmHg 60%
    04:00 +15°C° 0 mm 2 mps 753 mmHg 62%
    05:00 +14°C° 0 mm 1 mps 753 mmHg 63%
    06:00 +14°C° 0 mm 1 mps 753 mmHg 64%
    07:00 +16°C° 0 mm 1 mps 753 mmHg 60%
    08:00 +18°C° 0 mm 1 mps 753 mmHg 56%
    09:00 +19°C° 0 mm 1 mps 753 mmHg 52%
    10:00 +21°C° 0 mm 1 mps 753 mmHg 48%
    11:00 +22°C° 0 mm 1 mps 753 mmHg 43%
    12:00 +24°C° 0 mm 1 mps 753 mmHg 39%
    13:00 +24°C° 0 mm 1 mps 753 mmHg 39%
    14:00 +22°C° 0 mm 0 mps 752 mmHg 39%
    15:00 +22°C° 0 mm 0 mps 752 mmHg 39%
    16:00 +21°C° 0.1 mm 0 mps 752 mmHg 42%
    17:00 +20°C° 0.1 mm 0 mps 752 mmHg 46%
    18:00 +19°C° 0.1 mm 0 mps 751 mmHg 49%
    19:00 +18°C° 0.4 mm 0 mps 751 mmHg 53%
    20:00 +19°C° 0.4 mm 1 mps 751 mmHg 57%
    21:00 +18°C° 0.4 mm 1 mps 751 mmHg 61%
    22:00 +18°C° 0.4 mm 1 mps 751 mmHg 64%
    23:00 +15°C° 0.4 mm 0 mps 751 mmHg 67%

    27 April, Saturday

    Time Temperature Precipitation Wind Pressure Humidity
    00:00 +14°C° 0.4 mm 0 mps 751 mmHg 70%
    01:00 +14°C° 0 mm 0 mps 751 mmHg 71%
    02:00 +15°C° 0 mm 1 mps 750 mmHg 72%
    03:00 +14°C° 0 mm 1 mps 750 mmHg 73%
    04:00 +14°C° 0 mm 1 mps 750 mmHg 74%
    05:00 +14°C° 0 mm 2 mps 750 mmHg 74%
    06:00 +14°C° 0 mm 2 mps 749 mmHg 75%
    07:00 +15°C° 0 mm 2 mps 749 mmHg 69%
    08:00 +17°C° 0 mm 3 mps 749 mmHg 63%
    09:00 +19°C° 0 mm 3 mps 749 mmHg 57%
    10:00 +20°C° 0 mm 3 mps 749 mmHg 52%
    11:00 +21°C° 0 mm 4 mps 748 mmHg 46%
    12:00 +22°C° 0 mm 4 mps 748 mmHg 40%
    13:00 +22°C° 0 mm 4 mps 748 mmHg 41%
    14:00 +22°C° 0 mm 4 mps 747 mmHg 42%
    15:00 +22°C° 0 mm 4 mps 747 mmHg 43%
    16:00 +21°C° 0 mm 4 mps 747 mmHg 46%
    17:00 +21°C° 0 mm 3 mps 746 mmHg 49%
    18:00 +21°C° 0 mm 3 mps 746 mmHg 53%
    19:00 +19°C° 0 mm 3 mps 746 mmHg 56%
    20:00 +18°C° 0 mm 3 mps 746 mmHg 60%
    21:00 +16°C° 0 mm 3 mps 746 mmHg 63%
    22:00 +16°C° 0 mm 3 mps 745 mmHg 64%
    23:00 +14°C° 0 mm 3 mps 745 mmHg 66%

    28 April, Sunday

    Time Temperature Precipitation Wind Pressure Humidity
    00:00 +14°C° 0 mm 3 mps 745 mmHg 67%
    01:00 +13°C° 0 mm 3 mps 745 mmHg 69%
    02:00 +13°C° 0 mm 3 mps 745 mmHg 70%
    03:00 +12°C° 0 mm 3 mps 745 mmHg 71%
    04:00 +12°C° 0 mm 3 mps 744 mmHg 73%
    05:00 +12°C° 0 mm 3 mps 744 mmHg 75%
    06:00 +11°C° 0 mm 3 mps 744 mmHg 76%
    07:00 +13°C° 0 mm 3 mps 744 mmHg 72%
    08:00 +16°C° 0 mm 3 mps 744 mmHg 67%
    09:00 +18°C° 0 mm 3 mps 744 mmHg 62%
    10:00 +17°C° 0.5 mm 3 mps 744 mmHg 65%
    11:00 +17°C° 0.5 mm 2 mps 744 mmHg 68%
    12:00 +17°C° 0.5 mm 2 mps 744 mmHg 71%
    13:00 +16°C° 2.9 mm 2 mps 744 mmHg 78%
    14:00 +14°C° 2.9 mm 3 mps 744 mmHg 85%
    15:00 +13°C° 2.9 mm 3 mps 744 mmHg 91%
    16:00 +13°C° 1.3 mm 4 mps 744 mmHg 89%
    17:00 +13°C° 1.3 mm 6 mps 745 mmHg 87%
    18:00 +11°C° 1.3 mm 7 mps 745 mmHg 85%
    19:00 +10°C° 0 mm 7 mps 745 mmHg 84%
    20:00 +9°C° 0 mm 7 mps 746 mmHg 82%
    21:00 +9°C° 0 mm 7 mps 747 mmHg 81%
    22:00 +8°C° 0 mm 7 mps 747 mmHg 77%
    23:00 +6°C° 0 mm 7 mps 748 mmHg 74%

    29 April, Monday

    Time Temperature Precipitation Wind Pressure Humidity
    00:00 +6°C° 0 mm 7 mps 748 mmHg 71%
    01:00 +5°C° 0 mm 7 mps 749 mmHg 71%
    02:00 +5°C° 0 mm 7 mps 749 mmHg 71%
    03:00 +4°C° 0 mm 7 mps 750 mmHg 71%
    04:00 +4°C° 0 mm 7 mps 750 mmHg 70%
    05:00 +3°C° 0 mm 6 mps 751 mmHg 69%
    06:00 +2°C° 0 mm 6 mps 751 mmHg 67%
    07:00 +3°C° 0 mm 7 mps 752 mmHg 63%
    08:00 +3°C° 0 mm 7 mps 752 mmHg 58%
    09:00 +4°C° 0 mm 7 mps 753 mmHg 53%
    10:00 +4°C° 0 mm 7 mps 753 mmHg 50%
    11:00 +5°C° 0 mm 7 mps 753 mmHg 47%
    12:00 +6°C° 0 mm 7 mps 753 mmHg 44%
    13:00 +7°C° 0 mm 6 mps 753 mmHg 44%
    14:00 +7°C° 0 mm 6 mps 752 mmHg 43%
    15:00 +8°C° 0 mm 6 mps 752 mmHg 43%
    16:00 +7°C° 0 mm 5 mps 752 mmHg 45%
    17:00 +7°C° 0 mm 5 mps 752 mmHg 47%
    18:00 +7°C° 0 mm 4 mps 752 mmHg 49%
    19:00 +6°C° 0 mm 4 mps 752 mmHg 52%
    20:00 +5°C° 0 mm 4 mps 753 mmHg 55%
    21:00 +5°C° 0 mm 3 mps 753 mmHg 58%
    22:00 +4°C° 0 mm 3 mps 753 mmHg 59%
    23:00 +4°C° 0 mm 3 mps 753 mmHg 60%
    Show more